MERAH PUTIH 2

Last updated on Sun Apr 12 2026 00:02:56 GMT+0000 (Coordinated Universal Time)

1 58995U 24035A 26101.49697406 -.00000356 00000+0 00000+0 0 9998 2 58995 0.0132 221.0799 0001431 212.1222 58.3851 1.00272809 7922
UTC large
Height (km)
Speed (km/s)
/
Latitude / Longitude
Inclination (degrees)
Orbital Period (minutes)
Azimuth
Elevation
Range (km)
Doppler Factor

Next 0 passes for location: London (51.5072 / 0.1276)

Sorry there are no passes over London.
MERAH PUTIH 2